Location: Ammerl�gen
(47.2167°N, 9.6000°E)
Time: 15:48:17
(UTC+00:00)

IRIDIUM 106 - Pass Details

Date: 21 April 2021
Orbit: 776 x 779 km, 86.4° (Epoch: 06 May)

Event Time Altitude Azimuth Distance (km) Brightness Sun altitude
Exits shadow 19:33:56 - 172° (S) 2,846 6.9 -12.2°
Reaches altitude 10° 19:35:16 10° 170° (S) 2,324 6.4 -12.4°
Maximum altitude 19:40:25 65° 90° (E) 856 4.3 -13.1°
Drops below altitude 10° 19:45:35 10° 9° (N) 2,339 7.2 -13.8°
Sets 19:47:58 0° 7° (N) 3,271 8.0 -14.2°
